Regional Weather Roundup
Issued by NWS

Home | Current Version | Previous Version | Text Only | Print | Product List | Glossary On
Versions: 1 2 3 4 5 6 7 8 9 10 11 12 13 14 15 16 17 18 19 20 21 22 23 24 25 26 27 28 29 30 31 32 33 34 35 36 37 38 39 40 41 42 43 44 45 46 47 48 49 50
000
ASUS43 KMPX 261010
RWRMN
WEATHER ROUNDUP FOR MINNESOTA
NATIONAL WEATHER SERVICE TWIN CITIES/CHANHASSEN MN
500 AM CDT TUE SEP 26 2017


NOTE: "FAIR" INDICATES FEW OR NO CLOUDS BELOW 12,000 FEET WITH NO
SIGNIFICANT WEATHER AND/OR OBSTRUCTIONS TO VISIBILITY. N/A MEANS
CURRENT SKY AND/OR WEATHER CONDITIONS ARE NOT AVAILABLE.

MNZ060>063-068>070-261100-
   Twin Cities Metro

CITY           SKY/WX    TMP DP  RH WIND       PRES   REMARKS
TWIN CITIES    LGT RAIN  59  58  96 CALM      29.91S
ST PAUL        LGT RAIN  58  58 100 CALM      29.92S
CRYSTAL        LGT RAIN  57  54  89 CALM      29.91S
BLAINE         LGT RAIN  57  57 100 CALM      29.91S
LAKEVILLE      DRIZZLE   57  57 100 CALM      29.91S
EDEN PRAIRIE   LGT RAIN  58  57  97 W3        29.91R
SOUTH ST PAUL  DRIZZLE   59  58  97 CALM      29.91S
LAKE ELMO      LGT RAIN  59  57  94 CALM      29.92S
$$
MNZ001>005-007-008-013>017-022>024-027-028-261100-
   Northwest Minnesota

CITY           SKY/WX    TMP DP  RH WIND       PRES   REMARKS
BEMIDJI        RAIN      49  49  98 N5        30.02S
HALLOCK          N/A     48  48 100 N6        30.08F
ROSEAU           N/A     50  45  81 N5        30.07S HAZE
WARROAD        CLOUDY    50  46  87 N7        30.06F
THIEF RVR FALL LGT RAIN  49  48  97 N8        30.06F
CROOKSTON      LGT RAIN  48  48 100 N7        30.07S
FOSSTON        RAIN      48  46  93 N9        30.04F
DETROIT LAKES  DRIZZLE   50  48  93 N6        30.02F
MOORHEAD       LGT RAIN  50  48  93 N8        30.03F
PARK RAPIDS    LGT RAIN  51  49  92 NW6       30.00S
MAHNOMEN       RAIN      49  48  97 N7        30.03S
$$
MNZ006-009>011-018-025>026-261100-
   North Central Minnesota

CITY           SKY/WX    TMP DP  RH WIND       PRES   REMARKS
BAUDETTE       CLOUDY    50  48  93 N7        30.05F
FLAG ISLAND    CLOUDY    52  46  82 NE6       30.07R
INTL FALLS     CLOUDY    51  47  86 NE6       30.03S
WASKISH        LGT RAIN  48  48 100 N3        30.03S
BIG FORK       RAIN      52  48  87 N6        29.99F
LONGVILLE      LGT RAIN  52  52 100 CALM      29.97S
GRAND RAPIDS   LGT RAIN  52  51  97 N5        29.98F FOG
CRANE LAKE     RAIN      50  48  93 CALM      30.02S
ORR            RAIN      50  46  87 CALM      29.97F
WALKER         RAIN      50  49  98 N5        29.99F
$$
MNZ012-019>021-037-261100-
   Northeast Minnesota

CITY           SKY/WX    TMP DP  RH WIND       PRES   REMARKS
DULUTH         RAIN      53  53 100 E12       29.92F FOG
ELY            LGT RAIN  50  50 100 E6        29.98S
HIBBING        LGT RAIN  51  50  96 N7        29.96F FOG
EVELETH        RAIN      53  51  95 NE7       29.97S
GRAND MARAIS     N/A     54  51  90 VRB3      29.96F
$$
MNZ029>031-032-039>041-046>048-054>057-064-261100-
   West Central Minnesota

CITY           SKY/WX    TMP DP  RH WIND       PRES   REMARKS
FERGUS FALLS   CLOUDY    52  52 100 N6        30.01F
WHEATON        CLOUDY    50  48  93 N6        30.03S
ALEXANDRIA     CLOUDY    53  52  96 N9        29.99S
ELBOW LAKE     CLOUDY    51  51 100 NW10      30.00F
WADENA         LGT RAIN  50  50 100 N8        29.98F
GLENWOOD       DRIZZLE   52  52 100 N7        29.98S
APPLETON       DRIZZLE   54  50  87 N8        29.99S
BENSON         DRIZZLE   54  52  94 N7        30.00S
ORTONVILLE     DRIZZLE   50  48  93 N9        30.01S
MADISON        LGT RAIN  54  54 100 N8        30.00F
WILLMAR        DRIZZLE   55  55 100 NW6       29.97F
$$
MNZ033>034-036-042>043-049>051-058-059-261100-
   Central Minnesota

CITY           SKY/WX    TMP DP  RH WIND       PRES   REMARKS
ST CLOUD       LGT RAIN  54  54 100 NW9       29.94S FOG
SAUK CENTRE    RAIN      52  51  97 N6        29.96F
PAYNESVILLE    LGT RAIN  54  54 100 N3        29.96F
AITKIN         RAIN      52  50  93 N6        29.94S
PINE RIVER     LGT RAIN  50  48  93 N6        30.01S
BRAINERD       RAIN      53  53 100 N7        29.96S FOG
STAPLES        RAIN      52  52 100 N6        29.97F
LITTLE FALLS   HVY RAIN  52  50  93 NW5       29.96S
LITCHFIELD     DRIZZLE   55  55 100 NW8       29.95F
BUFFALO        RAIN      55  54  94 W3        29.94S
MAPLE LAKE     LGT RAIN  56  56  98 W6        29.94S
HUTCHINSON     RAIN      56  56  99 NW5       29.96S
$$
MNZ037-044-045-052-053-261100-
   East Central Minnesota

CITY           SKY/WX    TMP DP  RH WIND       PRES   REMARKS
PRINCETON      RAIN      57  55  94 W3        29.92F
MORA           DRIZZLE   54  52  94 NW3       29.93F
RUSH CITY      LGT RAIN  56  55  95 CALM      29.91F
MOOSE LAKE     DRIZZLE   55  54  94 NE5       29.90S
HINCKLEY       DRIZZLE   55  55 100 CALM      29.91F
CLOQUET        RAIN      55  52  88 E7        29.92F
MCGREGOR       CLOUDY    54  52  94 N8        29.94F
$$
MNZ071>073-080-081-089-090-097-098-261100-
   Southwest Minnesota

CITY           SKY/WX    TMP DP  RH WIND       PRES   REMARKS
MONTEVIDEO     LGT RAIN  52  52 100 N9        29.99S
GRANITE FALLS  DRIZZLE   54  54  98 NW8       29.99F
CANBY          LGT RAIN  51  50  97 NW8       30.00F
MARSHALL       LGT RAIN  51  50  96 NW9       29.99S
REDWOOD FALLS  LGT RAIN  55  53  93 NW8       29.96S
OLIVIA         CLOUDY    54  52  94 NW7       29.95F FOG
PIPESTONE      LGT RAIN  52  48  87 N3        30.00S
WORTHINGTON    LGT RAIN  51  51 100 NW8       30.00S
JACKSON        LGT RAIN  52  52 100 NW13G18   29.98R
TRACY          RAIN      52  52 100 N7        29.98F
SLAYTON        LGT RAIN  50  43  77 NW7       30.00S
$$
MNZ065>067-074>077-082>085-091>093-261100-
   South Central Minnesota

CITY           SKY/WX    TMP DP  RH WIND       PRES   REMARKS
MANKATO        LGT RAIN  57  56  96 NW7       29.93S
NEW ULM        LGT RAIN  55  54  94 NW7       29.95S
ST JAMES       RAIN      55  55 100 W7        29.96S
FAIRMONT       LGT RAIN  56  55  97 NW13      29.95R FOG
FARIBAULT      LGT RAIN  57  57 100 CALM      29.92F
OWATONNA       LGT RAIN  59  57  94 CALM      29.91F
WASECA         LGT RAIN  55  55 100 CALM      29.93S
ALBERT LEA     RAIN      64  64 100 CALM      29.91F
$$
MNZ078>079-086>088-094>096-261100-
   Southeast Minnesota

CITY           SKY/WX    TMP DP  RH WIND       PRES   REMARKS
ROCHESTER      LGT RAIN  62  62 100 S3        29.93F VSB 1/4
RED WING       CLOUDY    61  59  94 CALM      29.89F
STANTON        DRIZZLE   60  58  92 CALM      29.90F
DODGE CENTER   LGT RAIN  61  59  94 CALM      29.92S
WINONA         CLOUDY    66  64  94 CALM      29.91F
AUSTIN         LGT RAIN  63  63 100 CALM      29.90F
PRESTON        CLOUDY    63  61  96 SW5       29.92F FOG
$$
ABBREVIATIONS USED IN REMARKS
   TC - TEMPERATURES IN CELSIUS
  WCI - WIND CHILL INDEX
   HX - HEAT INDEX
  VSB - VISIBILITY
$$




USA.gov is the U.S. government's official web portal to all federal, state and local government web resources and services.